Back to catalog

SL-8 DEB *

AliveLEO
NORAD 18519·DEBRIS·🇷🇺 Russia

Launched Feb 21, 1984 from Plesetsk Cosmodrome

Loading…

Next Passes (next 24 hours)

TLE

FreshSource: Space-Track

Epoch: Sep 14, 2026, 09:34 UTC

1 18519U 84019D   26257.39875374  .00001617  00000-0  25557-3 0  9996
2 18519  74.0402 128.6651 0008168 139.9945 220.1831 14.73175569 74281

Track SL-8 DEB * in real time with AllMySat

Download on the App Store